This demonstration page uses our WeatherBlox Daily Observations layout. Learn more.

Left ArrowRight Arrow

39.29038, -76.61219

Hourly Observations for January 12, 2020

Temp ( °F °C ) Dew Point ( °F °C ) Humidity (%) Winds ( mph kmh ) Pressure ( in mb ) Visibility ( mi km ) Precip ( " mm )
12:54 am 00:54 undefined 65 18.3 59 15 81 81 undefined N/A 29.87 1012 N/A 0.00 0.00
1:54 am 01:54 undefined 66 18.9 63 17.2 90 90 undefined N/A 29.87 1011 N/A 0.19 4.83
2:54 am 02:54 undefined 65 18.3 62 16.7 90 90 undefined N/A 29.87 1012 N/A 0.02 0.51
3:54 am 03:54 undefined 66 18.9 63 17.2 90 90 undefined N/A 29.87 1012 N/A 0.00 0.00
4:54 am 04:54 undefined 67 19.4 63 17.2 87 87 undefined N/A 29.87 1011 N/A 0.00 0.00
5:54 am 05:54 undefined 68 20 62 16.7 81 81 undefined N/A 29.90 1012 N/A 0.00 0.00
6:54 am 06:54 undefined 66 18.9 62 16.7 87 87 undefined N/A 29.95 1014 N/A 0.02 0.51
7:54 am 07:54 undefined 65 18.3 57 13.9 76 76 undefined N/A 30.02 1017 N/A 0.00 0.00
8:54 am 08:54 undefined 64 17.8 45 7.2 50 50 undefined N/A 30.09 1019 N/A 0.00 0.00
9:54 am 09:54 undefined 65 18.3 44 6.7 47 47 undefined N/A 30.18 1022 N/A 0.00 0.00
10:54 am 10:54 undefined 64 17.8 43 6.1 46 46 undefined N/A 30.19 1023 N/A 0.00 0.00
11:54 am 11:54 undefined 66 18.9 43 6.1 43 43 undefined N/A 30.20 1023 N/A 0.00 0.00
12:54 pm 12:54 undefined 65 18.3 41 5 42 42 undefined N/A 30.18 1022 N/A 0.00 0.00
1:54 pm 13:54 undefined 66 18.9 41 5 40 40 undefined N/A 30.19 1023 N/A 0.00 0.00
2:54 pm 14:54 undefined 64 17.8 40 4.4 41 41 undefined N/A 30.19 1022 N/A 0.00 0.00
3:54 pm 15:54 undefined 64 17.8 40 4.4 41 41 undefined N/A 30.22 1023 N/A 0.00 0.00
4:54 pm 16:54 undefined 63 17.2 40 4.4 43 43 undefined N/A 30.24 1024 N/A 0.00 0.00
5:54 pm 17:54 undefined 60 15.6 41 5 50 50 undefined N/A 30.27 1025 N/A 0.00 0.00
6:54 pm 18:54 undefined 57 13.9 41 5 55 55 undefined N/A 30.29 1026 N/A 0.00 0.00
7:54 pm 19:54 undefined 55 12.8 39 3.9 55 55 undefined N/A 30.33 1027 N/A 0.00 0.00
8:54 pm 20:54 undefined 52 11.1 38 3.3 59 59 undefined N/A 30.34 1027 N/A 0.00 0.00
9:54 pm 21:54 undefined 50 10 37 2.8 61 61 undefined N/A 30.37 1028 N/A 0.00 0.00
10:54 pm 22:54 undefined 50 10 37 2.8 61 61 undefined N/A 30.37 1029 N/A 0.00 0.00
11:54 pm 23:54 undefined 49 9.4 37 2.8 64 64 undefined N/A 30.37 1028 N/A 0.00 0.00

Powered by AerisWeather